| time (UTC) | temp C | wind direction | speed KPH | gust KPH | rain 1hr cm | rain 24hr cm | rain mn cm | humidity % | barometer mb |
| 20260506043259 | 13 | 264 | 3.2 | 8.0 | 0.00 | 0.13 | 0.13 | 84 | 1017.4 |
| 20260506042759 | 13 | 297 | 1.6 | 8.0 | 0.00 | 0.13 | 0.13 | 84 | 1017.4 |
| 20260506042257 | 13 | 217 | 1.6 | 6.4 | 0.00 | 0.13 | 0.13 | 84 | 1017.4 |
| 20260506041755 | 13 | 243 | 1.6 | 11.3 | 0.00 | 0.13 | 0.13 | 84 | 1017.1 |
| 20260506041255 | 13 | 253 | 3.2 | 11.3 | 0.00 | 0.13 | 0.13 | 83 | 1017.1 |
| 20260506040753 | 13 | 263 | 3.2 | 11.3 | 0.00 | 0.13 | 0.13 | 83 | 1017.1 |
| 20260506040250 | 13 | 269 | 3.2 | 14.5 | 0.00 | 0.13 | 0.13 | 83 | 1016.9 |
| 20260506035748 | 13 | 221 | 3.2 | 14.5 | 0.00 | 0.13 | 0.13 | 83 | 1016.9 |
| 20260506035250 | 13 | 238 | 4.8 | 9.7 | 0.00 | 0.13 | 0.13 | 83 | 1016.9 |
| 20260506034749 | 14 | 191 | 3.2 | 9.7 | 0.00 | 0.13 | 0.13 | 83 | 1016.9 |
| 20260506034246 | 14 | 233 | 3.2 | 11.3 | 0.00 | 0.13 | 0.13 | 82 | 1016.9 |
| 20260506033747 | 14 | 233 | 3.2 | 11.3 | 0.00 | 0.13 | 0.13 | 82 | 1016.9 |
| 20260506033247 | 14 | 249 | 3.2 | 11.3 | 0.00 | 0.13 | 0.13 | 82 | 1016.7 |
| 20260506032748 | 14 | 267 | 3.2 | 9.7 | 0.00 | 0.13 | 0.13 | 82 | 1016.7 |
| 20260506032244 | 14 | 274 | 3.2 | 6.4 | 0.00 | 0.13 | 0.13 | 82 | 1016.7 |
| 20260506031743 | 14 | 263 | 4.8 | 16.1 | 0.00 | 0.13 | 0.13 | 82 | 1016.6 |
| 20260506031242 | 14 | 292 | 3.2 | 9.7 | 0.00 | 0.13 | 0.13 | 82 | 1016.6 |
| 20260506031234 | 14 | 236 | 4.8 | 16.1 | 0.00 | 0.13 | 0.13 | 82 | 1016.6 |
| 20260506030235 | 14 | 242 | 3.2 | 11.3 | 0.00 | 0.13 | 0.13 | 82 | 1016.4 |
| 20260506025733 | 14 | 262 | 4.8 | 14.5 | 0.00 | 0.13 | 0.13 | 82 | 1016.4 |
| 20260506025234 | 14 | 228 | 6.4 | 19.3 | 0.00 | 0.13 | 0.13 | 82 | 1016.4 |
| 20260506024731 | 14 | 265 | 6.4 | 19.3 | 0.00 | 0.13 | 0.13 | 81 | 1016.3 |
| 20260506024229 | 14 | 247 | 6.4 | 14.5 | 0.00 | 0.13 | 0.13 | 81 | 1016.3 |
| 20260506023736 | 15 | 229 | 9.7 | 20.9 | 0.00 | 0.13 | 0.13 | 79 | 1016.2 |
| 20260506023730 | 15 | 200 | 8.0 | 17.7 | 0.00 | 0.13 | 0.13 | 80 | 1016.3 |
| 20260506022727 | 15 | 284 | 9.7 | 20.9 | 0.00 | 0.13 | 0.13 | 79 | 1016.2 |
| 20260506022231 | 15 | 230 | 9.7 | 22.5 | 0.00 | 0.13 | 0.13 | 77 | 1016.3 |
| 20260506022226 | 15 | 226 | 9.7 | 22.5 | 0.00 | 0.13 | 0.13 | 78 | 1016.2 |
| 20260506021226 | 15 | 221 | 9.7 | 24.1 | 0.00 | 0.13 | 0.13 | 76 | 1016.3 |
| 20260506020725 | 16 | 191 | 9.7 | 24.1 | 0.00 | 0.13 | 0.13 | 76 | 1016.3 |
| 20260506020231 | 16 | 229 | 11.3 | 24.1 | 0.00 | 0.13 | 0.13 | 74 | 1016.2 |
| 20260506020224 | 16 | 224 | 11.3 | 24.1 | 0.00 | 0.13 | 0.13 | 76 | 1016.2 |
| 20260506015222 | 16 | 193 | 9.7 | 22.5 | 0.00 | 0.13 | 0.13 | 73 | 1016.2 |
| 20260506014729 | 16 | 247 | 8.0 | 19.3 | 0.00 | 0.13 | 0.13 | 73 | 1016.1 |
| 20260506014722 | 16 | 221 | 9.7 | 22.5 | 0.00 | 0.13 | 0.13 | 73 | 1016.1 |
| 20260506013721 | 16 | 206 | 6.4 | 19.3 | 0.00 | 0.13 | 0.13 | 72 | 1016.1 |
| 20260506013219 | 16 | 231 | 6.4 | 16.1 | 0.00 | 0.13 | 0.13 | 72 | 1016.0 |
| 20260506012718 | 16 | 277 | 8.0 | 17.7 | 0.00 | 0.13 | 0.13 | 71 | 1016.0 |
| 20260506012225 | 16 | 229 | 8.0 | 19.3 | 0.00 | 0.13 | 0.13 | 72 | 1015.9 |
| 20260506012219 | 16 | 153 | 8.0 | 19.3 | 0.00 | 0.13 | 0.13 | 72 | 1016.0 |
| 20260506011216 | 16 | 165 | 8.0 | 17.7 | 0.00 | 0.13 | 0.13 | 72 | 1015.9 |
| 20260506010721 | 16 | 219 | 8.0 | 20.9 | 0.00 | 0.13 | 0.13 | 73 | 1015.9 |
| 20260506010714 | 16 | 253 | 9.7 | 20.9 | 0.00 | 0.13 | 0.13 | 73 | 1015.9 |
| 20260506005713 | 16 | 229 | 8.0 | 20.9 | 0.00 | 0.13 | 0.13 | 72 | 1015.9 |
| 20260506005210 | 16 | 226 | 6.4 | 16.1 | 0.00 | 0.13 | 0.13 | 72 | 1015.9 |
| 20260506005206 | 16 | 184 | 8.0 | 20.9 | 0.00 | 0.13 | 0.13 | 72 | 1015.9 |
| 20260506004206 | 16 | 195 | 6.4 | 19.3 | 0.00 | 0.13 | 0.13 | 72 | 1015.9 |
| 20260506003704 | 16 | 217 | 6.4 | 19.3 | 0.00 | 0.13 | 0.13 | 72 | 1015.9 |
| 20260506003205 | 16 | 222 | 8.0 | 22.5 | 0.00 | 0.13 | 0.13 | 73 | 1015.8 |
| 20260506002705 | 16 | 176 | 11.3 | 22.5 | 0.00 | 0.13 | 0.13 | 72 | 1015.8 |
| 20260506002202 | 16 | 247 | 11.3 | 27.4 | 0.00 | 0.13 | 0.13 | 73 | 1015.8 |
| 20260506001710 | 16 | 239 | 11.3 | 30.6 | 0.00 | 0.13 | 0.13 | 73 | 1015.7 |
| 20260506001702 | 16 | 248 | 11.3 | 27.4 | 0.00 | 0.13 | 0.13 | 73 | 1015.7 |
| 20260506000701 | 16 | 271 | 11.3 | 30.6 | 0.00 | 0.13 | 0.13 | 73 | 1015.7 |
| 20260506000200 | 16 | 231 | 9.7 | 24.1 | 0.00 | 0.13 | 0.13 | 73 | 1015.4 |
| 20260505235703 | 16 | 197 | 8.0 | 22.5 | 0.00 | 0.13 | 0.13 | 73 | 1015.4 |
| 20260505235655 | 16 | 264 | 8.0 | 22.5 | 0.00 | 0.13 | 0.13 | 74 | 1015.4 |
| 20260505234655 | 16 | 169 | 11.3 | 24.1 | 0.00 | 0.13 | 0.13 | 75 | 1015.8 |
| 20260505234154 | 16 | 224 | 12.9 | 24.1 | 0.00 | 0.13 | 0.13 | 74 | 1015.8 |
| 20260505233701 | 16 | 223 | 8.0 | 22.5 | 0.00 | 0.13 | 0.13 | 74 | 1015.9 |
| 20260505233656 | 16 | 271 | 11.3 | 20.9 | 0.00 | 0.13 | 0.13 | 74 | 1015.8 |
| 20260505233153 | 16 | 222 | 9.7 | 22.5 | 0.00 | 0.13 | 0.13 | 74 | 1015.9 |
| 20260505232151 | 16 | 198 | 9.7 | 22.5 | 0.00 | 0.13 | 0.13 | 74 | 1015.9 |
| 20260505231652 | 16 | 254 | 9.7 | 30.6 | 0.00 | 0.13 | 0.13 | 74 | 1015.9 |
| 20260505231150 | 16 | 207 | 9.7 | 30.6 | 0.00 | 0.13 | 0.13 | 74 | 1015.9 |
| 20260505230649 | 16 | 208 | 8.0 | 20.9 | 0.00 | 0.13 | 0.13 | 74 | 1015.9 |
| 20260505230149 | 16 | 259 | 9.7 | 20.9 | 0.00 | 0.13 | 0.13 | 74 | 1015.8 |
| 20260505225648 | 16 | 208 | 9.7 | 19.3 | 0.00 | 0.13 | 0.13 | 74 | 1015.8 |
| 20260505225147 | 16 | 213 | 9.7 | 22.5 | 0.00 | 0.13 | 0.13 | 74 | 1015.8 |
| 20260505224651 | 16 | 282 | 11.3 | 24.1 | 0.00 | 0.13 | 0.13 | 73 | 1015.8 |
| 20260505224644 | 16 | 139 | 11.3 | 22.5 | 0.00 | 0.13 | 0.13 | 73 | 1015.8 |
| 20260505223645 | 16 | 234 | 9.7 | 24.1 | 0.00 | 0.13 | 0.13 | 73 | 1015.8 |
| 20260505223145 | 17 | 205 | 8.0 | 22.5 | 0.00 | 0.13 | 0.13 | 73 | 1015.9 |
| 20260505222644 | 17 | 200 | 8.0 | 17.7 | 0.00 | 0.13 | 0.13 | 73 | 1015.9 |
| 20260505222144 | 17 | 233 | 9.7 | 20.9 | 0.00 | 0.13 | 0.13 | 73 | 1015.9 |
| 20260505221642 | 17 | 193 | 8.0 | 20.9 | 0.00 | 0.13 | 0.13 | 72 | 1015.8 |
| 20260505221144 | 17 | 240 | 6.4 | 19.3 | 0.00 | 0.13 | 0.13 | 71 | 1015.8 |
| 20260505221137 | 17 | 188 | 6.4 | 19.3 | 0.00 | 0.13 | 0.13 | 72 | 1015.8 |
| 20260505220141 | 17 | 147 | 6.4 | 16.1 | 0.00 | 0.13 | 0.13 | 70 | 1015.9 |
| 20260505220133 | 17 | 238 | 6.4 | 17.7 | 0.00 | 0.13 | 0.13 | 68 | 1015.9 |
| 20260505215749 | 17 | 230 | 6.4 | 16.1 | 0.00 | 0.13 | 0.13 | 70 | 1015.9 |
| 20260505214627 | 18 | 232 | 6.4 | 17.7 | 0.00 | 0.13 | 0.13 | 65 | 1015.9 |
| 20260505214129 | 18 | 307 | 6.4 | 11.3 | 0.00 | 0.13 | 0.13 | 65 | 1015.9 |
| 20260505213628 | 18 | 314 | 6.4 | 16.1 | 0.00 | 0.13 | 0.13 | 66 | 1015.9 |
| 20260505213128 | 18 | 306 | 6.4 | 16.1 | 0.00 | 0.13 | 0.13 | 65 | 1016.0 |
| 20260505212628 | 18 | 309 | 4.8 | 16.1 | 0.00 | 0.13 | 0.13 | 65 | 1016.0 |
| 20260505212125 | 18 | 225 | 3.2 | 9.7 | 0.00 | 0.13 | 0.13 | 67 | 1016.0 |
| 20260505211623 | 17 | 299 | 4.8 | 17.7 | 0.00 | 0.13 | 0.13 | 67 | 1016.1 |
| 20260505211122 | 17 | 266 | 6.4 | 17.7 | 0.00 | 0.13 | 0.13 | 66 | 1016.1 |
| 20260505210628 | 17 | 271 | 4.8 | 11.3 | 0.00 | 0.13 | 0.13 | 70 | 1015.9 |
| 20260505210621 | 17 | 300 | 4.8 | 11.3 | 0.00 | 0.13 | 0.13 | 66 | 1016.1 |
| 20260505210119 | 17 | 287 | 3.2 | 11.3 | 0.00 | 0.13 | 0.13 | 68 | 1015.9 |
| 20260505205119 | 17 | 284 | 6.4 | 19.3 | 0.00 | 0.13 | 0.13 | 71 | 1015.9 |
| 20260505204619 | 17 | 227 | 4.8 | 19.3 | 0.00 | 0.13 | 0.13 | 69 | 1015.9 |
| 20260505204120 | 17 | 266 | 4.8 | 11.3 | 0.00 | 0.13 | 0.13 | 69 | 1015.9 |
| 20260505203625 | 18 | 222 | 4.8 | 16.1 | 0.00 | 0.13 | 0.13 | 66 | 1015.9 |
| 20260505203615 | 17 | 267 | 6.4 | 16.1 | 0.00 | 0.13 | 0.13 | 66 | 1015.9 |
| 20260505202611 | 18 | 270 | 3.2 | 14.5 | 0.00 | 0.13 | 0.13 | 68 | 1015.9 |
| 20260505202112 | 17 | 328 | 4.8 | 14.5 | 0.00 | 0.13 | 0.13 | 68 | 1015.9 |
| 20260505201610 | 17 | 239 | 4.8 | 14.5 | 0.00 | 0.13 | 0.13 | 65 | 1016.0 |
| 20260505201106 | 18 | 219 | 3.2 | 16.1 | 0.00 | 0.13 | 0.13 | 64 | 1016.0 |
| 20260505200605 | 18 | 285 | 4.8 | 16.1 | 0.00 | 0.13 | 0.13 | 66 | 1016.0 |
| 20260505200107 | 18 | 321 | 6.4 | 17.7 | 0.00 | 0.13 | 0.13 | 63 | 1015.9 |
| 20260505195604 | 18 | 296 | 6.4 | 17.7 | 0.00 | 0.13 | 0.13 | 65 | 1015.9 |
| 20260505195105 | 18 | 304 | 6.4 | 14.5 | 0.00 | 0.13 | 0.13 | 64 | 1015.9 |
| 20260505194603 | 18 | 276 | 8.0 | 19.3 | 0.00 | 0.13 | 0.13 | 65 | 1016.0 |
| 20260505194105 | 18 | 276 | 8.0 | 19.3 | 0.00 | 0.13 | 0.13 | 65 | 1016.0 |
| 20260505193604 | 18 | 274 | 6.4 | 25.7 | 0.00 | 0.13 | 0.13 | 65 | 1016.0 |
| 20260505193101 | 18 | 301 | 6.4 | 25.7 | 0.00 | 0.13 | 0.13 | 64 | 1015.9 |
| 20260505192557 | 18 | 246 | 6.4 | 16.1 | 0.00 | 0.13 | 0.13 | 66 | 1015.9 |
| 20260505192057 | 18 | 330 | 6.4 | 19.3 | 0.00 | 0.13 | 0.13 | 69 | 1015.9 |
| 20260505191558 | 17 | 300 | 8.0 | 19.3 | 0.00 | 0.13 | 0.13 | 69 | 1015.9 |
| 20260505191057 | 17 | 257 | 6.4 | 17.7 | 0.00 | 0.13 | 0.13 | 68 | 1015.9 |
| 20260505190602 | 17 | 288 | 6.4 | 17.7 | 0.00 | 0.13 | 0.13 | 72 | 1015.8 |
| 20260505190556 | 17 | 306 | 4.8 | 17.7 | 0.00 | 0.13 | 0.13 | 72 | 1015.9 |
| 20260505190222 | 17 | 220 | 6.4 | 16.1 | 0.00 | 0.13 | 0.13 | 72 | 1015.8 |
| 20260505185100 | 17 | 219 | 4.8 | 16.1 | 0.00 | 0.13 | 0.13 | 73 | 1015.8 |
| 20260505185053 | 17 | 277 | 4.8 | 14.5 | 0.00 | 0.13 | 0.13 | 71 | 1015.8 |
| 20260505184053 | 16 | 281 | 4.8 | 16.1 | 0.00 | 0.13 | 0.13 | 74 | 1015.8 |
| 20260505183600 | 16 | 230 | 6.4 | 17.7 | 0.00 | 0.13 | 0.13 | 76 | 1015.8 |
| 20260505183554 | 16 | 236 | 6.4 | 17.7 | 0.00 | 0.13 | 0.13 | 75 | 1015.8 |
| 20260505182555 | 16 | 242 | 6.4 | 17.7 | 0.00 | 0.13 | 0.13 | 75 | 1015.8 |
| 20260505182054 | 16 | 157 | 4.8 | 14.5 | 0.00 | 0.13 | 0.13 | 76 | 1015.8 |
| 20260505181554 | 16 | 259 | 4.8 | 14.5 | 0.00 | 0.13 | 0.13 | 78 | 1015.7 |
| 20260505181053 | 16 | 285 | 4.8 | 14.5 | 0.00 | 0.13 | 0.13 | 78 | 1015.7 |
| 20260505180551 | 16 | 213 | 4.8 | 16.1 | 0.00 | 0.13 | 0.13 | 81 | 1015.7 |
| 20260505180213 | 15 | 222 | 4.8 | 11.3 | 0.00 | 0.13 | 0.13 | 85 | 1015.4 |
| 20260505180110 | 15 | 227 | 3.2 | 12.9 | 0.00 | 0.13 | 0.13 | 84 | 1015.4 |
| 20260505174552 | 14 | 215 | 4.8 | 17.7 | 0.00 | 0.13 | 0.13 | 86 | 1015.3 |
| 20260505174050 | 14 | 195 | 4.8 | 17.7 | 0.00 | 0.13 | 0.13 | 86 | 1015.3 |
| 20260505173551 | 14 | 268 | 3.2 | 9.7 | 0.00 | 0.13 | 0.13 | 86 | 1015.3 |
| 20260505173058 | 13 | 221 | 3.2 | 8.0 | 0.00 | 0.13 | 0.13 | 87 | 1015.3 |
| 20260505173051 | 14 | 273 | 3.2 | 8.0 | 0.00 | 0.13 | 0.13 | 87 | 1015.3 |
| 20260505172052 | 13 | 0.0 | 3.2 | 0.00 | 0.13 | 0.13 | 87 | 1015.3 | |
| 20260505171000 | 13 | 237 | 3.2 | 9.7 | 0.00 | 0.13 | 0.13 | 88 | 1015.3 |
| 20260505170442 | 13 | 228 | 3.2 | 8.0 | 0.00 | 0.13 | 0.13 | 89 | 1015.3 |
| 20260505170435 | 13 | 276 | 3.2 | 11.3 | 0.00 | 0.13 | 0.13 | 89 | 1015.3 |
| 20260505165433 | 13 | 184 | 1.6 | 11.3 | 0.00 | 0.13 | 0.13 | 89 | 1015.3 |
| 20260505164934 | 13 | 237 | 3.2 | 14.5 | 0.00 | 0.13 | 0.13 | 89 | 1015.3 |
| 20260505164430 | 13 | 283 | 4.8 | 14.5 | 0.00 | 0.13 | 0.13 | 89 | 1015.3 |
| 20260505163919 | 13 | 206 | 4.8 | 11.3 | 0.00 | 0.13 | 0.13 | 88 | 1015.3 |
| 20260505163420 | 13 | 232 | 4.8 | 11.3 | 0.00 | 0.13 | 0.13 | 88 | 1015.1 |
| 20260505162920 | 13 | 223 | 3.2 | 9.7 | 0.00 | 0.13 | 0.13 | 87 | 1015.1 |
| 20260505162419 | 13 | 264 | 3.2 | 11.3 | 0.00 | 0.13 | 0.13 | 88 | 1015.1 |
| 20260505161919 | 13 | 241 | 4.8 | 11.3 | 0.00 | 0.13 | 0.13 | 88 | 1014.8 |
| 20260505161408 | 13 | 226 | 4.8 | 9.7 | 0.00 | 0.13 | 0.13 | 88 | 1014.8 |
| 20260505160915 | 12 | 224 | 4.8 | 12.9 | 0.00 | 0.13 | 0.13 | 88 | 1014.8 |
| 20260505160908 | 13 | 189 | 4.8 | 9.7 | 0.00 | 0.13 | 0.13 | 88 | 1014.8 |
| 20260505160408 | 13 | 238 | 4.8 | 9.7 | 0.00 | 0.13 | 0.13 | 88 | 1014.8 |
| 20260505152902 | 12 | 226 | 6.4 | 16.1 | 0.00 | 0.13 | 0.13 | 88 | 1014.7 |
| 20260505152359 | 12 | 257 | 4.8 | 16.1 | 0.00 | 0.13 | 0.13 | 88 | 1014.7 |
| 20260505151856 | 12 | 221 | 4.8 | 14.5 | 0.00 | 0.13 | 0.13 | 88 | 1014.6 |
| 20260505151354 | 12 | 224 | 4.8 | 11.3 | 0.00 | 0.13 | 0.13 | 89 | 1014.6 |
| 20260505150850 | 12 | 219 | 3.2 | 9.7 | 0.00 | 0.13 | 0.13 | 89 | 1014.6 |
| 20260505150350 | 12 | 232 | 3.2 | 6.4 | 0.00 | 0.13 | 0.13 | 89 | 1014.4 |
| 20260505140319 | 11 | 236 | 1.6 | 4.8 | 0.00 | 0.13 | 0.13 | 90 | 1014.2 |
| 20260505140306 | 11 | 232 | 1.6 | 4.8 | 0.00 | 0.13 | 0.13 | 90 | 1014.2 |
| 20260505130158 | 11 | 241 | 0.0 | 3.2 | 0.00 | 0.13 | 0.13 | 91 | 1014.2 |
| 20260505124640 | 11 | 217 | 0.0 | 1.6 | 0.00 | 0.13 | 0.13 | 91 | 1014.2 |
| 20260505124634 | 11 | 217 | 0.0 | 3.2 | 0.00 | 0.13 | 0.13 | 91 | 1014.2 |
| 20260505123627 | 11 | 238 | 0.0 | 3.2 | 0.00 | 0.13 | 0.13 | 91 | 1014.2 |
| 20260505123122 | 11 | 238 | 0.0 | 3.2 | 0.00 | 0.13 | 0.13 | 91 | 1014.0 |
| 20260505122620 | 11 | 238 | 0.0 | 1.6 | 0.00 | 0.13 | 0.13 | 91 | 1014.0 |
| 20260505122612 | 11 | 238 | 0.0 | 3.2 | 0.00 | 0.13 | 0.13 | 91 | 1014.0 |
| 20260505121612 | 11 | 238 | 1.6 | 9.7 | 0.00 | 0.13 | 0.13 | 92 | 1013.8 |
| 20260505121056 | 11 | 238 | 3.2 | 11.3 | 0.00 | 0.13 | 0.13 | 92 | 1013.8 |
| 20260505120601 | 11 | 177 | 1.6 | 6.4 | 0.03 | 0.13 | 0.13 | 92 | 1014.2 |
| 20260505120554 | 11 | 231 | 1.6 | 11.3 | 0.00 | 0.13 | 0.13 | 92 | 1013.8 |
| 20260505115541 | 11 | 198 | 0.0 | 3.2 | 0.03 | 0.13 | 0.13 | 92 | 1014.2 |
| 20260505115534 | 11 | 251 | 0.0 | 3.2 | 0.03 | 0.13 | 0.13 | 92 | 1014.2 |
| 20260505114522 | 11 | 251 | 0.0 | 1.6 | 0.03 | 0.13 | 0.13 | 92 | 1014.3 |
| 20260505113953 | 11 | 251 | 0.0 | 3.2 | 0.03 | 0.13 | 0.13 | 92 | 1014.3 |
| 20260505113930 | 11 | 250 | 0.0 | 1.6 | 0.03 | 0.13 | 0.13 | 92 | 1014.3 |
| 20260505113420 | 11 | 250 | 0.0 | 1.6 | 0.03 | 0.13 | 0.13 | 92 | 1014.3 |
| 20260505112411 | 11 | 250 | 0.0 | 6.4 | 0.03 | 0.13 | 0.13 | 92 | 1014.3 |
| 20260505111905 | 11 | 250 | 0.0 | 6.4 | 0.03 | 0.13 | 0.13 | 92 | 1014.3 |
| 20260505111412 | 11 | 241 | 0.0 | 3.2 | 0.03 | 0.13 | 0.13 | 92 | 1014.3 |
| 20260505110903 | 11 | 243 | 0.0 | 4.8 | 0.03 | 0.13 | 0.13 | 92 | 1014.3 |
| 20260505110416 | 11 | 243 | 1.6 | 4.8 | 0.03 | 0.13 | 0.13 | 92 | 1014.2 |
| 20260505101811 | 11 | 284 | 0.0 | 6.4 | 0.03 | 0.10 | 0.10 | 91 | 1014.3 |
| 20260505101317 | 11 | 234 | 0.0 | 3.2 | 0.03 | 0.10 | 0.10 | 91 | 1014.3 |
| 20260505101311 | 11 | 284 | 0.0 | 6.4 | 0.03 | 0.10 | 0.10 | 91 | 1014.3 |
| 20260505100925 | 11 | 247 | 1.6 | 3.2 | 0.03 | 0.10 | 0.10 | 90 | 1014.3 |
| 20260505095808 | 11 | 246 | 0.0 | 3.2 | 0.03 | 0.10 | 0.10 | 90 | 1014.3 |
| 20260505095310 | 11 | 246 | 1.6 | 8.0 | 0.05 | 0.10 | 0.10 | 90 | 1014.3 |
| 20260505094810 | 11 | 246 | 3.2 | 8.0 | 0.03 | 0.08 | 0.08 | 90 | 1014.5 |
| 20260505094802 | 11 | 210 | 1.6 | 6.4 | 0.05 | 0.08 | 0.08 | 90 | 1014.5 |
| 20260505093802 | 11 | 230 | 1.6 | 4.8 | 0.05 | 0.08 | 0.08 | 90 | 1014.5 |
| 20260505093755 | 11 | 241 | 1.6 | 6.4 | 0.05 | 0.08 | 0.08 | 90 | 1014.8 |
| 20260505092746 | 11 | 236 | 1.6 | 6.4 | 0.05 | 0.08 | 0.08 | 90 | 1014.8 |
| 20260505092246 | 11 | 235 | 3.2 | 8.0 | 0.05 | 0.08 | 0.08 | 90 | 1014.8 |
| 20260505091747 | 11 | 263 | 3.2 | 8.0 | 0.05 | 0.08 | 0.08 | 90 | 1014.8 |
| 20260505091247 | 11 | 222 | 3.2 | 9.7 | 0.05 | 0.08 | 0.08 | 89 | 1014.8 |
| 20260505090745 | 11 | 240 | 3.2 | 9.7 | 0.05 | 0.08 | 0.08 | 89 | 1014.8 |
| 20260505090245 | 11 | 230 | 3.2 | 8.0 | 0.05 | 0.08 | 0.08 | 89 | 1014.9 |
| 20260505085751 | 11 | 223 | 1.6 | 8.0 | 0.03 | 0.05 | 0.05 | 88 | 1014.9 |
| 20260505085745 | 11 | 242 | 3.2 | 8.0 | 0.05 | 0.08 | 0.08 | 89 | 1014.9 |
| 20260505084743 | 11 | 248 | 1.6 | 8.0 | 0.03 | 0.03 | 0.05 | 88 | 1014.8 |
| 20260505084239 | 11 | 236 | 1.6 | 4.8 | 0.03 | 0.03 | 0.03 | 88 | 1014.8 |
| 20260505083737 | 11 | 212 | 1.6 | 4.8 | 0.03 | 0.03 | 0.03 | 88 | 1014.8 |
| 20260505083224 | 11 | 241 | 0.0 | 4.8 | 0.03 | 0.03 | 0.03 | 88 | 1015.0 |
| 20260505082726 | 11 | 247 | 1.6 | 6.4 | 0.03 | 0.03 | 0.03 | 88 | 1015.0 |
| 20260505082719 | 11 | 236 | 0.0 | 4.8 | 0.03 | 0.03 | 0.03 | 88 | 1015.0 |
| 20260505082337 | 11 | 256 | 1.6 | 6.4 | 0.03 | 0.03 | 0.03 | 88 | 1015.3 |
| 20260505081211 | 11 | 213 | 1.6 | 6.4 | 0.03 | 0.03 | 0.03 | 88 | 1015.3 |
| 20260505080711 | 11 | 250 | 1.6 | 4.8 | 0.03 | 0.03 | 0.03 | 87 | 1015.3 |
| 20260505080203 | 11 | 231 | 3.2 | 8.0 | 0.03 | 0.03 | 0.03 | 87 | 1015.3 |
| 20260505080159 | 11 | 228 | 3.2 | 6.4 | 0.03 | 0.03 | 0.03 | 87 | 1015.3 |
| 20260505075159 | 11 | 236 | 0.0 | 4.8 | 0.00 | 0.00 | 0.00 | 85 | 1015.4 |
| 20260505075153 | 11 | 233 | 1.6 | 8.0 | 0.03 | 0.03 | 0.03 | 86 | 1015.3 |
| 20260505074153 | 12 | 226 | 1.6 | 6.4 | 0.00 | 0.00 | 0.00 | 85 | 1015.4 |
| 20260505073651 | 12 | 248 | 1.6 | 4.8 | 0.00 | 0.00 | 0.00 | 83 | 1015.4 |
| 20260505073643 | 12 | 235 | 1.6 | 6.4 | 0.00 | 0.00 | 0.00 | 84 | 1015.4 |
| 20260505073125 | 12 | 250 | 1.6 | 9.7 | 0.00 | 0.00 | 0.00 | 82 | 1015.4 |
| 20260505072123 | 12 | 279 | 1.6 | 9.7 | 0.00 | 0.00 | 0.00 | 81 | 1015.4 |
| 20260505071610 | 12 | 274 | 3.2 | 9.7 | 0.00 | 0.00 | 0.00 | 80 | 1015.3 |
| 20260505071054 | 12 | 289 | 3.2 | 9.7 | 0.00 | 0.00 | 0.00 | 80 | 1015.3 |
| 20260505070559 | 12 | 295 | 1.6 | 6.4 | 0.00 | 0.00 | 0.00 | 81 | 1015.3 |
| 20260505070552 | 12 | 237 | 1.6 | 6.4 | 0.00 | 0.00 | 0.00 | 80 | 1015.3 |
| 20260505065549 | 12 | 273 | 1.6 | 8.0 | 0.00 | 0.00 | 0.00 | 81 | 1015.3 |
| 20260505065544 | 12 | 283 | 1.6 | 6.4 | 0.00 | 0.00 | 0.00 | 81 | 1015.3 |
| 20260505064550 | 12 | 245 | 1.6 | 6.4 | 0.00 | 0.00 | 0.00 | 80 | 1015.3 |
| 20260505064543 | 12 | 274 | 1.6 | 8.0 | 0.00 | 0.00 | 0.00 | 81 | 1015.3 |
| 20260505063551 | 12 | 258 | 3.2 | 8.0 | 0.00 | 0.00 | 0.00 | 79 | 1015.0 |
| 20260505063543 | 12 | 258 | 3.2 | 8.0 | 0.00 | 0.00 | 0.00 | 80 | 1015.3 |
| 20260505062539 | 12 | 276 | 3.2 | 9.7 | 0.00 | 0.00 | 0.00 | 78 | 1015.0 |
| 20260505062011 | 12 | 274 | 3.2 | 9.7 | 0.00 | 0.00 | 0.00 | 78 | 1015.0 |
| 20260505061508 | 12 | 252 | 1.6 | 9.7 | 0.00 | 0.00 | 0.00 | 77 | 1014.9 |
| 20260505061009 | 12 | 234 | 1.6 | 9.7 | 0.00 | 0.00 | 0.00 | 77 | 1014.9 |
| 20260505060959 | 12 | 255 | 1.6 | 8.0 | 0.00 | 0.00 | 0.00 | 77 | 1014.9 |
| 20260505060501 | 12 | 274 | 1.6 | 9.7 | 0.00 | 0.00 | 0.00 | 77 | 1014.9 |
| 20260505055456 | 12 | 264 | 1.6 | 4.8 | 0.00 | 0.00 | 0.00 | 77 | 1014.9 |
| 20260505054957 | 12 | 237 | 1.6 | 4.8 | 0.00 | 0.00 | 0.00 | 77 | 1014.9 |
| 20260505054457 | 12 | 248 | 3.2 | 11.3 | 0.00 | 0.00 | 0.00 | 78 | 1015.0 |
| 20260505053952 | 12 | 240 | 4.8 | 11.3 | 0.00 | 0.00 | 0.00 | 78 | 1015.0 |
| 20260505053443 | 12 | 294 | 4.8 | 14.5 | 0.00 | 0.00 | 0.00 | 78 | 1015.3 |
| 20260505052944 | 12 | 301 | 3.2 | 14.5 | 0.00 | 0.00 | 0.00 | 78 | 1015.3 |
| 20260505052444 | 12 | 257 | 3.2 | 11.3 | 0.00 | 0.00 | 0.00 | 78 | 1015.3 |
| 20260505051943 | 12 | 255 | 3.2 | 11.3 | 0.00 | 0.00 | 0.00 | 78 | 1015.7 |
| 20260505051441 | 12 | 259 | 3.2 | 9.7 | 0.00 | 0.00 | 0.00 | 78 | 1015.7 |
| 20260505050953 | 13 | 282 | 4.8 | 11.3 | 0.00 | 0.00 | 0.00 | 80 | 1015.8 |
| 20260505050943 | 12 | 276 | 4.8 | 16.1 | 0.00 | 0.00 | 0.00 | 79 | 1015.7 |
| 20260505050443 | 12 | 297 | 3.2 | 16.1 | 0.00 | 0.00 | 0.00 | 79 | 1015.8 |